Location: Nelson
(41.2830°S, 173.2830°E)
Time: 11:06:01
(UTC+13:00)

Radarsat Rocket - Pass Details

Date: 29 September 2021
Orbit: 933 x 1492 km, 100.6° (Epoch: 27 October)

Event Time Altitude Azimuth Distance (km) Brightness Sun altitude
Rises 21:33:36 0° 173° (S) 4,281 7.6 -23.1°
Reaches altitude 10° 21:36:53 10° 184° (S) 3,215 7.1 -23.6°
Maximum altitude 21:42:34 26° 236° (SW) 2,105 6.4 -24.6°
Drops below altitude 10° 21:47:45 10° 289° (WNW) 2,892 7.0 -25.4°
Sets 21:50:34 0° 301° (WNW) 3,769 7.5 -25.9°
